Redstone Army Air Field
KHUA : now visible

Airfield :











YOU CAN JOIN US ON...

 
LOGIN :

Register | Disclaimer

   EN    FR    IT 

 









Legend :    VFR   Marginal VFR   IFR   Intensive IFR   Very Intensive IFR
Visi :
Ceiling :
>= 8 km
>= 3000ft
5 to 8 km
1000 to 3000 ft
1500m to 5 km
500 to 1000 ft
800 to 1500m
200 to 500 ft
< 800m
< 200 ft
Symbols :   Thunderstorms  Fog  Heavy snow  Heavy precipitations  Wind > 20 kt






- Airport Elevation : 684 ft


KHUA - Redstone Army Air Field

CURRENT METAR :
  • 282055Z 35015KT 7SM OVC060 09/01 A3003 RMK SLPNO RVRNO $

EXPIRED METARs :
  • 281955Z 35015KT 7SM OVC040 09/02 A2983 RMK SLPNO RVRNO $
  • 281857Z 35015KT 7SM OVC040 10/05 A2949 RMK SLPNO RVRNO $
  • 281755Z 33008KT 7SM BKN020 OVC030 10/07 A2905 RMK SLPNO RVRNO $

TAF TAF KHUA
Valid from the 28 at 20:00 until the 01 at 02:00 UTC


282000Z 2820/0102 33012G18KT 9999 OVC040 510053 520756 QNH2905INS
BECMG 2823/2824 34009KT 9999 FEW160 520803 QNH3024INS TX10/2822Z TN01/2912Z
KZME FIR / North America



MET'MAP, your aeronautical weather chart ! - Copyright ORBIFLY December 2007 - Disclaimer

ORBIFLY MET'MAP TEAM :

Programming & Development : Alexandra Zaïnal
Original concept : Baudouin d'Aumeries
Technical & hardware support : Manuel Goepfert
Assistance : Marc-Olivier Méhu




SOURCES & CREDITS :

   NOAA       Earth
Advisory